Change the Weather History Date:

Saturday, October 19, 2013

  Actual Average Record
Temperature  
Mean Temperature 43 °F 51 °F  
Max Temperature 49 °F 60 °F 85 °F (1953)
Min Temperature 36 °F 42 °F 22 °F (1972)
Degree Days  
Heating Degree Days 22 14  
Month to date heating degree days 131 207  
Since 1 July heating degree days 241 321  
Cooling Degree Days 0 0  
Month to date cooling degree days 20 7  
Year to date cooling degree days 891 802  
Moisture  
Dew Point 40 °F    
Average Humidity 88    
Maximum Humidity 100    
Minimum Humidity 76    
Precipitation  
Precipitation 0.21 in 0.08 in 2.02 in (1985)
Month to date precipitation 1.31 1.56  
Year to date precipitation 33.49 27.26  
Snow  
Snow 0.00 in 0.00 in 2.70 in (1989)
Month to date snowfall 0.0 0.0  
Since 1 July snowfall 0.0 0.0  
Since 1 September snowfall 0.0 0.0  
Snow Depth 0.00 in    
Sea Level Pressure  
Sea Level Pressure 29.83 in    
Wind  
Wind Speed 8 mph (SW)    
Max Wind Speed 21 mph    
Max Gust Speed 25 mph    
Visibility 7 miles    
Events Rain    
T = Trace of Precipitation, MM = Missing Value Source: NWS Daily Summary

Daily Weather History Graph

Daily Weather History Graph

Search for Another Location

Airport or City:

Trip Planner

Search our weather history database for the weather conditions in past years. The results will help you decide how hot, cold, wet, or windy it might be!

Date:

Astronomy

Oct. 19, 2013 Rise Set
Actual Time 7:50 AM EDT 6:44 PM EDT
Civil Twilight 7:22 AM EDT 7:13 PM EDT
Nautical Twilight 6:49 AM EDT 7:45 PM EDT
Astronomical Twilight 6:17 AM EDT 8:18 PM EDT
Moon 7:10 PM EDT (10/19) 8:28 AM EDT (10/19)
Length of Visible Light 11h 50m
Length of Day
10h 53m
Waxing Gibbous, 99% of the Moon is Illuminated
Oct 19
Waxing Gibbous
Oct 26
Last Quarter
Nov 3
New
Nov 10
First Quarter
Nov 17
Full

Hourly Weather History & Observations

Time (EDT) Temp. Windchill Dew Point Humidity Pressure Visibility Wind Dir Wind Speed Gust Speed Precip Events Conditions
12:53 AM 46.0 °F 43.1 °F 39.9 °F 79% 29.91 in 10.0 mi WSW 5.8 mph - N/A   Partly Cloudy
1:53 AM 45.0 °F 40.6 °F 39.9 °F 82% 29.90 in 10.0 mi SSW 8.1 mph - N/A   Scattered Clouds
2:53 AM 41.0 °F 36.4 °F 39.0 °F 93% 29.89 in 9.0 mi South 6.9 mph - N/A   Clear
3:53 AM 42.1 °F 37.1 °F 39.0 °F 89% 29.89 in 8.0 mi SSW 8.1 mph - N/A   Mostly Cloudy
4:53 AM 42.1 °F 37.1 °F 39.0 °F 89% 29.88 in 9.0 mi South 8.1 mph - N/A   Overcast
5:53 AM 41.0 °F 36.4 °F 39.0 °F 93% 29.88 in 9.0 mi South 6.9 mph - N/A   Overcast
6:53 AM 42.1 °F 37.7 °F 39.0 °F 89% 29.86 in 7.0 mi SSW 6.9 mph - 0.00 in Rain Light Rain
7:53 AM 42.1 °F 38.4 °F 39.9 °F 92% 29.85 in 3.0 mi SW 5.8 mph - 0.01 in Rain Light Rain
8:53 AM 43.0 °F 38.8 °F 41.0 °F 93% 29.84 in 3.0 mi WSW 6.9 mph - 0.03 in Rain Light Rain
9:53 AM 43.0 °F 39.5 °F 42.1 °F 97% 29.83 in 3.0 mi West 5.8 mph - 0.02 in Rain Light Rain
10:53 AM 44.1 °F 39.0 °F 42.1 °F 93% 29.83 in 3.0 mi WSW 9.2 mph - 0.02 in Rain Light Rain
11:53 AM 44.1 °F 39.0 °F 41.0 °F 89% 29.82 in 3.0 mi SSW 9.2 mph - 0.03 in Rain Light Rain
12:18 PM 44.6 °F 39.7 °F 42.8 °F 93% 29.80 in 3.0 mi SW 9.2 mph - 0.01 in Rain Light Rain
12:46 PM 44.6 °F 39.7 °F 42.8 °F 93% 29.80 in 3.0 mi SW 9.2 mph - 0.03 in Rain Light Rain
12:53 PM 44.1 °F 39.0 °F 42.1 °F 93% 29.81 in 3.0 mi SSW 9.2 mph - 0.03 in Rain Light Rain
1:32 PM 44.6 °F 39.7 °F 41.0 °F 87% 29.78 in 3.0 mi WSW 9.2 mph - 0.02 in Rain Light Rain
1:53 PM 45.0 °F 39.7 °F 42.1 °F 90% 29.79 in 3.0 mi WSW 10.4 mph - 0.03 in Rain Light Rain
2:26 PM 46.4 °F 41.1 °F 42.8 °F 87% 29.77 in 3.0 mi WSW 11.5 mph - 0.01 in Rain Light Rain
2:53 PM 46.9 °F - 43.0 °F 86% 29.77 in 3.0 mi WSW 13.8 mph 17.3 mph 0.01 in   Overcast
3:33 PM 42.8 °F 36.6 °F 39.2 °F 87% 29.77 in 4.0 mi West 11.5 mph - 0.02 in Rain Light Rain
3:53 PM 44.1 °F 38.1 °F 41.0 °F 89% 29.78 in 7.0 mi West 11.5 mph - 0.02 in Rain Light Rain
4:08 PM 46.4 °F 41.9 °F 42.8 °F 87% 29.77 in 10.0 mi WSW 9.2 mph - 0.00 in   Mostly Cloudy
4:34 PM 46.4 °F 41.1 °F 41.0 °F 81% 29.78 in 10.0 mi WSW 11.5 mph 20.7 mph 0.01 in   Mostly Cloudy
4:53 PM 46.0 °F 41.0 °F 41.0 °F 83% 29.80 in 10.0 mi West 10.4 mph - 0.01 in Rain Light Rain
5:08 PM 44.6 °F 39.7 °F 39.2 °F 81% 29.78 in 5.0 mi WSW 9.2 mph - 0.00 in Rain Light Rain
5:21 PM 44.6 °F 39.7 °F 39.2 °F 81% 29.79 in 10.0 mi WSW 9.2 mph - 0.00 in   Mostly Cloudy
5:53 PM 45.0 °F 39.7 °F 41.0 °F 86% 29.81 in 10.0 mi SW 10.4 mph - 0.00 in   Mostly Cloudy
6:53 PM 44.1 °F 39.0 °F 39.9 °F 85% 29.82 in 10.0 mi SSW 9.2 mph - N/A   Scattered Clouds
7:53 PM 43.0 °F 36.8 °F 39.0 °F 86% 29.84 in 10.0 mi SSW 11.5 mph - N/A   Partly Cloudy
8:53 PM 42.1 °F 37.7 °F 39.0 °F 89% 29.85 in 10.0 mi South 6.9 mph - N/A   Mostly Cloudy
9:53 PM 41.0 °F 38.0 °F 37.9 °F 89% 29.87 in 10.0 mi SW 4.6 mph - N/A   Scattered Clouds
10:53 PM 37.9 °F 32.7 °F 36.0 °F 93% 29.87 in 10.0 mi South 6.9 mph - N/A   Partly Cloudy
11:53 PM 37.0 °F 31.6 °F 36.0 °F 96% 29.87 in 10.0 mi NW 6.9 mph - N/A   Scattered Clouds